Regional Weather Roundup
Issued by NWS Nashville, TN

Home | Current Version | Previous Version | Text Only | Print | Product List | Glossary On
Versions: 1 2 3 4 5 6 7 8 9 10 11 12 13 14 15 16 17 18 19 20 21 22 23 24 25 26 27
000
ASUS44 KOHX 271610
RWROHX
MIDDLE TENNESSEE HOURLY WEATHER ROUNDUP
NATIONAL WEATHER SERVICE NASHVILLE TN
1100 AM CDT WED JUL 27 2016

NOTE: "FAIR" INDICATES FEW OR NO CLOUDS BELOW 12,000 FEET WITH
NO SIGNIFICANT WEATHER AND/OR OBSTRUCTIONS TO VISIBILITY.

* THESE REPORTS ARE NOT UNDER NWS QUALITY CONTROL AND MAY NOT
  REPORT WEATHER SUCH AS PRECIPITATION AND FOG.


TNZ005>011-023>034-057-059-062>066-078-080-271700
...NORTHERN MIDDLE TENNESSEE...

CITY           SKY/WX    TMP DP  RH WIND       PRES   REMARKS
CLARKSVILLE    SUNNY     86  75  69 S3        30.00S HX  95
CROSSVILLE     MOSUNNY   84  72  67 CALM      30.11S
NASHVILLE      MOSUNNY   87  73  62 SW3       30.02F HX  94
SMYRNA         MOSUNNY   90  74  59 SE5       30.02F HX  99
SPARTA         MOSUNNY   90  77  66 CALM      30.04F HX 102
$$
TNZ056-058-060-061-075>077-079-093>097-271700
...SOUTHERN MIDDLE TENNESSEE...

CITY           SKY/WX    TMP DP  RH WIND       PRES   REMARKS
COLUMBIA       PTSUNNY   88  81  79 S10       30.03R HX 105
FAYETTEVILLE   CLOUDY    81  72  74 SE7       30.07R
MCMINNVILLE    MOSUNNY   88  75  66 VRB3      30.05F HX  97
SHELBYVILLE    MOSUNNY   88  77  70 S8        30.05R HX 100
TULLAHOMA      PTSUNNY   84  72  65 VRB7      30.07S
WINCHESTER     CLOUDY    84  72  65 S7        30.07R
$$


...KEY TO REMARKS...
VSB - VISIBILITY IN MILES
WCI - WIND CHILL INDEX
HX  - HEAT INDEX





USA.gov is the U.S. government's official web portal to all federal, state and local government web resources and services.